ORBCOMM FM107 [+] (40087 NORAD) Tracking and Keplerian Element Data

This shows tracking and keplerian element data for the satellite.

Feedback or suggestion? Click here.




ElementValue
Catalog40087
NameORBCOMM FM107 [+]
Epoch Orbit23496
Epoch Day348.57482807
Epoch Year2018
RAAN33.8039
Inclination47.0075
Eccentricity0.0003239
Argument of Perigee250.1156
Mean Anonmoly109.9379
Mean Motion14.5475236
Decay Rate-4.6E-07
L11 40087U 14040B 18348.57482807 -.00000046 00000-0 27836-4 0 9994
L22 40087 47.0075 33.8039 0003239 250.1156 109.9379 14.54752360234966

Live tracking and technical data element details for ORBCOMM FM107 [+] (NORAD 40087). ORBCOMM FM107 [+] can be tracked NOW for your location showing map with azimuth and elevation plus other details from your city location.

Track the satellite on the map from your city or location and see movement details for azimuth, elevation, latitude, longitude, range, height, and movement on the map or in text.







IsCatalogInMostPopularTable: catalog: 40087, numindb: 106
Update: records affected: 1



GetName: 40087 ORBCOMM FM107 [+]

Hit Count: updated at: Sat, 15 Dec 2018 13:59:28 GMT